Year,Month,Day,Hour,Minute,Value (Times are PST for temperature in C)
2013,04,27,00,00,13.40
2013,04,27,00,01,13.40
2013,04,27,00,02,13.40
2013,04,27,00,03,13.40
2013,04,27,00,04,13.40
2013,04,27,00,05,13.40
2013,04,27,00,06,13.30
2013,04,27,00,07,13.30
2013,04,27,00,08,13.30
2013,04,27,00,09,13.30
2013,04,27,00,10,13.30
2013,04,27,00,11,13.30
2013,04,27,00,12,13.20
2013,04,27,00,13,13.20
2013,04,27,00,14,13.20
2013,04,27,00,15,13.20
2013,04,27,00,16,13.20
2013,04,27,00,17,13.20
2013,04,27,00,18,13.10
2013,04,27,00,19,13.10
2013,04,27,00,20,13.10
2013,04,27,00,21,13.10
2013,04,27,00,22,13.10
2013,04,27,00,23,13.10
2013,04,27,00,24,13.10
2013,04,27,00,25,13.10
2013,04,27,00,26,13.20
2013,04,27,00,27,13.20
2013,04,27,00,28,13.20
2013,04,27,00,29,13.20
2013,04,27,00,30,13.20
2013,04,27,00,31,13.20
2013,04,27,00,32,13.20
2013,04,27,00,33,13.20
2013,04,27,00,34,13.20
2013,04,27,00,35,13.20
2013,04,27,00,36,13.20
2013,04,27,00,37,13.20
2013,04,27,00,38,13.20
2013,04,27,00,39,13.20
2013,04,27,00,40,13.20
2013,04,27,00,41,13.20
2013,04,27,00,42,13.20
2013,04,27,00,43,13.20
2013,04,27,00,44,13.20
2013,04,27,00,45,13.20
2013,04,27,00,46,13.20
2013,04,27,00,47,13.10
2013,04,27,00,48,13.10
2013,04,27,00,49,13.10
2013,04,27,00,50,13.10
2013,04,27,00,51,13.10
2013,04,27,00,52,13.00
2013,04,27,00,53,13.00
2013,04,27,00,54,13.00
2013,04,27,00,55,12.90
2013,04,27,00,56,12.90
2013,04,27,00,57,12.90
2013,04,27,00,58,12.90
2013,04,27,00,59,12.90
2013,04,27,01,00,12.80
2013,04,27,01,01,12.80
2013,04,27,01,02,12.80
2013,04,27,01,03,12.80
2013,04,27,01,04,12.70
2013,04,27,01,05,12.70
2013,04,27,01,06,12.70
2013,04,27,01,07,12.70
2013,04,27,01,08,12.70
2013,04,27,01,09,12.70
2013,04,27,01,10,12.60
2013,04,27,01,11,12.60
2013,04,27,01,12,12.60
2013,04,27,01,13,12.60
2013,04,27,01,14,12.60
2013,04,27,01,15,12.60
2013,04,27,01,16,12.60
2013,04,27,01,17,12.50
2013,04,27,01,18,12.50
2013,04,27,01,19,12.40
2013,04,27,01,20,12.40
2013,04,27,01,21,12.40
2013,04,27,01,22,12.40
2013,04,27,01,23,12.40
2013,04,27,01,24,12.40
2013,04,27,01,25,12.30
2013,04,27,01,26,12.30
2013,04,27,01,27,12.30
2013,04,27,01,28,12.30
2013,04,27,01,29,12.30
2013,04,27,01,30,12.20
2013,04,27,01,31,12.20
2013,04,27,01,32,12.20
2013,04,27,01,33,12.20
2013,04,27,01,34,12.20
2013,04,27,01,35,12.20
2013,04,27,01,36,12.20
2013,04,27,01,37,12.20
2013,04,27,01,38,12.20
2013,04,27,01,39,12.20
2013,04,27,01,40,12.20
2013,04,27,01,41,12.10
2013,04,27,01,42,12.10
2013,04,27,01,43,12.10
2013,04,27,01,44,12.10
2013,04,27,01,45,12.10
2013,04,27,01,46,12.10
2013,04,27,01,47,12.10
2013,04,27,01,48,12.10
2013,04,27,01,49,12.10
2013,04,27,01,50,12.10
2013,04,27,01,51,12.00
2013,04,27,01,52,12.00
2013,04,27,01,53,12.00
2013,04,27,01,54,12.00
2013,04,27,01,55,12.00
2013,04,27,01,56,12.00
2013,04,27,01,57,12.00
2013,04,27,01,58,12.00
2013,04,27,01,59,12.00
2013,04,27,02,00,11.90
2013,04,27,02,01,11.90
2013,04,27,02,02,11.90
2013,04,27,02,03,11.80
2013,04,27,02,04,11.80
2013,04,27,02,05,11.80
2013,04,27,02,06,11.70
2013,04,27,02,07,11.70
2013,04,27,02,08,11.70
2013,04,27,02,09,11.70
2013,04,27,02,10,11.60
2013,04,27,02,11,11.60
2013,04,27,02,12,11.60
2013,04,27,02,13,11.60
2013,04,27,02,14,11.60
2013,04,27,02,15,11.60
2013,04,27,02,16,11.60
2013,04,27,02,17,11.60
2013,04,27,02,18,11.60
2013,04,27,02,19,11.70
2013,04,27,02,20,11.70
2013,04,27,02,21,11.70
2013,04,27,02,22,11.70
2013,04,27,02,23,11.70
2013,04,27,02,24,11.70
2013,04,27,02,25,11.60
2013,04,27,02,26,11.60
2013,04,27,02,27,11.60
2013,04,27,02,28,11.60
2013,04,27,02,29,11.50
2013,04,27,02,30,11.50
2013,04,27,02,31,11.50
2013,04,27,02,32,11.50
2013,04,27,02,33,11.50
2013,04,27,02,34,11.50
2013,04,27,02,35,11.40
2013,04,27,02,36,11.40
2013,04,27,02,37,11.40
2013,04,27,02,38,11.40
2013,04,27,02,39,11.40
2013,04,27,02,40,11.40
2013,04,27,02,41,11.40
2013,04,27,02,42,11.50
2013,04,27,02,43,11.50
2013,04,27,02,44,11.50
2013,04,27,02,45,11.50
2013,04,27,02,46,11.50
2013,04,27,02,47,11.60
2013,04,27,02,48,11.60
2013,04,27,02,49,11.60
2013,04,27,02,50,11.60
2013,04,27,02,51,11.60
2013,04,27,02,52,11.60
2013,04,27,02,53,11.60
2013,04,27,02,54,11.60
2013,04,27,02,55,11.60
2013,04,27,02,56,11.60
2013,04,27,02,57,11.70
2013,04,27,02,58,11.70
2013,04,27,02,59,11.70
2013,04,27,03,00,11.70
2013,04,27,03,01,11.70
2013,04,27,03,02,11.70
2013,04,27,03,03,11.70
2013,04,27,03,04,11.70
2013,04,27,03,05,11.70
2013,04,27,03,06,11.80
2013,04,27,03,07,11.80
2013,04,27,03,08,11.80
2013,04,27,03,09,11.80
2013,04,27,03,10,11.80
2013,04,27,03,11,11.80
2013,04,27,03,12,11.80
2013,04,27,03,13,11.80
2013,04,27,03,14,11.80
2013,04,27,03,15,11.80
2013,04,27,03,16,11.80
2013,04,27,03,17,11.80
2013,04,27,03,18,11.80
2013,04,27,03,19,11.80
2013,04,27,03,20,11.80
2013,04,27,03,21,11.80
2013,04,27,03,22,11.80
2013,04,27,03,23,11.80
2013,04,27,03,24,11.80
2013,04,27,03,25,11.80
2013,04,27,03,26,11.80
2013,04,27,03,27,11.80
2013,04,27,03,28,11.80
2013,04,27,03,29,11.80
2013,04,27,03,30,11.80
2013,04,27,03,31,11.80
2013,04,27,03,32,11.80
2013,04,27,03,33,11.80
2013,04,27,03,34,11.80
2013,04,27,03,35,11.80
2013,04,27,03,36,11.90
2013,04,27,03,37,11.90
2013,04,27,03,38,11.90
2013,04,27,03,39,11.90
2013,04,27,03,40,11.90
2013,04,27,03,41,11.90
2013,04,27,03,42,11.90
2013,04,27,03,43,11.90
2013,04,27,03,44,11.80
2013,04,27,03,45,11.80
2013,04,27,03,46,11.80
2013,04,27,03,47,11.80
2013,04,27,03,48,11.80
2013,04,27,03,49,11.80
2013,04,27,03,50,11.80
2013,04,27,03,51,11.80
2013,04,27,03,52,11.80
2013,04,27,03,53,11.80
2013,04,27,03,54,11.80
2013,04,27,03,55,11.70
2013,04,27,03,56,11.70
2013,04,27,03,57,11.70
2013,04,27,03,58,11.60
2013,04,27,03,59,11.60
2013,04,27,04,00,11.60
2013,04,27,04,01,11.60
2013,04,27,04,02,11.60
2013,04,27,04,03,11.60
2013,04,27,04,04,11.50
2013,04,27,04,05,11.50
2013,04,27,04,06,11.50
2013,04,27,04,07,11.40
2013,04,27,04,08,11.40
2013,04,27,04,09,11.40
2013,04,27,04,10,11.40
2013,04,27,04,11,11.40
2013,04,27,04,12,11.40
2013,04,27,04,13,11.30
2013,04,27,04,14,11.30
2013,04,27,04,15,11.30
2013,04,27,04,16,11.30
2013,04,27,04,17,11.30
2013,04,27,04,18,11.30
2013,04,27,04,19,11.20
2013,04,27,04,20,11.20
2013,04,27,04,21,11.20
2013,04,27,04,22,11.20
2013,04,27,04,23,11.20
2013,04,27,04,24,11.20
2013,04,27,04,25,11.20
2013,04,27,04,26,11.20
2013,04,27,04,27,11.20
2013,04,27,04,28,11.20
2013,04,27,04,29,11.20
2013,04,27,04,30,11.20
2013,04,27,04,31,11.20
2013,04,27,04,32,11.20
2013,04,27,04,33,11.20
2013,04,27,04,34,11.20
2013,04,27,04,35,11.20
2013,04,27,04,36,11.20
2013,04,27,04,37,11.20
2013,04,27,04,38,11.20
2013,04,27,04,39,11.20
2013,04,27,04,40,11.20
2013,04,27,04,41,11.20
2013,04,27,04,42,11.20
2013,04,27,04,43,11.20
2013,04,27,04,44,11.20
2013,04,27,04,45,11.20
2013,04,27,04,46,11.20
2013,04,27,04,47,11.20
2013,04,27,04,48,11.20
2013,04,27,04,49,11.20
2013,04,27,04,50,11.20
2013,04,27,04,51,11.20
2013,04,27,04,52,11.20
2013,04,27,04,53,11.20
2013,04,27,04,54,11.20
2013,04,27,04,55,11.20
2013,04,27,04,56,11.20
2013,04,27,04,57,11.20
2013,04,27,04,58,11.20
2013,04,27,04,59,11.20
2013,04,27,05,00,11.20
2013,04,27,05,01,11.20
2013,04,27,05,02,11.30
2013,04,27,05,03,11.20
2013,04,27,05,04,11.20
2013,04,27,05,05,11.20
2013,04,27,05,06,11.20
2013,04,27,05,07,11.20
2013,04,27,05,08,11.20
2013,04,27,05,09,11.20
2013,04,27,05,10,11.20
2013,04,27,05,11,11.20
2013,04,27,05,12,11.20
2013,04,27,05,13,11.10
2013,04,27,05,14,11.10
2013,04,27,05,15,11.10
2013,04,27,05,16,11.10
2013,04,27,05,17,11.00
2013,04,27,05,18,11.00
2013,04,27,05,19,11.00
2013,04,27,05,20,11.00
2013,04,27,05,21,10.90
2013,04,27,05,22,10.90
2013,04,27,05,23,10.90
2013,04,27,05,24,10.90
2013,04,27,05,25,10.80
2013,04,27,05,26,10.80
2013,04,27,05,27,10.70
2013,04,27,05,28,10.70
2013,04,27,05,29,10.70
2013,04,27,05,30,10.60
2013,04,27,05,31,10.60
2013,04,27,05,32,10.50
2013,04,27,05,33,10.50
2013,04,27,05,34,10.40
2013,04,27,05,35,10.40
2013,04,27,05,36,10.30
2013,04,27,05,37,10.30
2013,04,27,05,38,10.30
2013,04,27,05,39,10.30
2013,04,27,05,40,10.20
2013,04,27,05,41,10.20
2013,04,27,05,42,10.10
2013,04,27,05,43,10.00
2013,04,27,05,44,10.00
2013,04,27,05,45,9.90
2013,04,27,05,46,9.90
2013,04,27,05,47,9.90
2013,04,27,05,48,9.80
2013,04,27,05,49,9.80
2013,04,27,05,50,9.80
2013,04,27,05,51,9.80
2013,04,27,05,52,9.80
2013,04,27,05,53,9.70
2013,04,27,05,54,9.70
2013,04,27,05,55,9.70
2013,04,27,05,56,9.60
2013,04,27,05,57,9.60
2013,04,27,05,58,9.60
2013,04,27,05,59,9.50
2013,04,27,06,00,9.50
2013,04,27,06,01,9.40
2013,04,27,06,02,9.40
2013,04,27,06,03,9.40
2013,04,27,06,04,9.40
2013,04,27,06,05,9.30
2013,04,27,06,06,9.30
2013,04,27,06,07,9.30
2013,04,27,06,08,9.20
2013,04,27,06,09,9.20
2013,04,27,06,10,9.20
2013,04,27,06,11,9.20
2013,04,27,06,12,9.10
2013,04,27,06,13,9.10
2013,04,27,06,14,9.10
2013,04,27,06,15,9.10
2013,04,27,06,16,9.00
2013,04,27,06,17,9.00
2013,04,27,06,18,8.90
2013,04,27,06,19,8.90
2013,04,27,06,20,8.90
2013,04,27,06,21,8.90
2013,04,27,06,22,8.90
2013,04,27,06,23,8.80
2013,04,27,06,24,8.80
2013,04,27,06,25,8.80
2013,04,27,06,26,8.80
2013,04,27,06,27,8.80
2013,04,27,06,28,8.80
2013,04,27,06,29,8.70
2013,04,27,06,30,8.70
2013,04,27,06,31,8.70
2013,04,27,06,32,8.70
2013,04,27,06,33,8.70
2013,04,27,06,34,8.60
2013,04,27,06,35,8.60
2013,04,27,06,36,8.60
2013,04,27,06,37,8.60
2013,04,27,06,38,8.60
2013,04,27,06,39,8.50
2013,04,27,06,40,8.50
2013,04,27,06,41,8.50
2013,04,27,06,42,8.40
2013,04,27,06,43,8.40
2013,04,27,06,44,8.40
2013,04,27,06,45,8.40
2013,04,27,06,46,8.40
2013,04,27,06,47,8.40
2013,04,27,06,48,8.40
2013,04,27,06,49,8.40
2013,04,27,06,50,8.40
2013,04,27,06,51,8.40
2013,04,27,06,52,8.40
2013,04,27,06,53,8.40
2013,04,27,06,54,8.40
2013,04,27,06,55,8.40
2013,04,27,06,56,8.40
2013,04,27,06,57,8.40
2013,04,27,06,58,8.40
2013,04,27,06,59,8.40
2013,04,27,07,00,8.40
2013,04,27,07,01,8.40
2013,04,27,07,02,8.40
2013,04,27,07,03,8.50
2013,04,27,07,04,8.50
2013,04,27,07,05,8.50
2013,04,27,07,06,8.50
2013,04,27,07,07,8.60
2013,04,27,07,08,8.70
2013,04,27,07,09,8.80
2013,04,27,07,10,8.90
2013,04,27,07,11,9.10
2013,04,27,07,12,9.20
2013,04,27,07,13,9.30
2013,04,27,07,14,9.40
2013,04,27,07,15,9.50
2013,04,27,07,16,9.50
2013,04,27,07,17,9.60
2013,04,27,07,18,9.60
2013,04,27,07,19,9.70
2013,04,27,07,20,9.70
2013,04,27,07,21,9.80
2013,04,27,07,22,9.80
2013,04,27,07,23,9.90
2013,04,27,07,24,9.90
2013,04,27,07,25,10.00
2013,04,27,07,26,10.00
2013,04,27,07,27,10.10
2013,04,27,07,28,10.10
2013,04,27,07,29,10.10
2013,04,27,07,30,10.10
2013,04,27,07,31,10.20
2013,04,27,07,32,10.20
2013,04,27,07,33,10.20
2013,04,27,07,34,10.20
2013,04,27,07,35,10.30
2013,04,27,07,36,10.30
2013,04,27,07,37,10.30
2013,04,27,07,38,10.40
2013,04,27,07,39,10.40
2013,04,27,07,40,10.50
2013,04,27,07,41,10.50
2013,04,27,07,42,10.60
2013,04,27,07,43,10.60
2013,04,27,07,44,10.60
2013,04,27,07,45,10.70
2013,04,27,07,46,10.70
2013,04,27,07,47,10.80
2013,04,27,07,48,10.80
2013,04,27,07,49,10.80
2013,04,27,07,50,10.80
2013,04,27,07,51,10.80
2013,04,27,07,52,10.80
2013,04,27,07,53,10.80
2013,04,27,07,54,10.80
2013,04,27,07,55,10.90
2013,04,27,07,56,10.90
2013,04,27,07,57,10.90
2013,04,27,07,58,10.90
2013,04,27,07,59,10.90
2013,04,27,08,00,11.00
2013,04,27,08,01,11.00
2013,04,27,08,02,11.00
2013,04,27,08,03,11.00
2013,04,27,08,04,11.10
2013,04,27,08,05,11.10
2013,04,27,08,06,11.10
2013,04,27,08,07,11.10
2013,04,27,08,08,11.10
2013,04,27,08,09,11.10
2013,04,27,08,10,11.10
2013,04,27,08,11,11.10
2013,04,27,08,12,11.20
2013,04,27,08,13,11.20
2013,04,27,08,14,11.20
2013,04,27,08,15,11.20
2013,04,27,08,16,11.20
2013,04,27,08,17,11.20
2013,04,27,08,18,11.20
2013,04,27,08,19,11.20
2013,04,27,08,20,11.20
2013,04,27,08,21,11.20
2013,04,27,08,22,11.20
2013,04,27,08,23,11.20
2013,04,27,08,24,11.20
2013,04,27,08,25,11.20
2013,04,27,08,26,11.20
2013,04,27,08,27,11.20
2013,04,27,08,28,11.20
2013,04,27,08,29,11.20
2013,04,27,08,30,11.30
2013,04,27,08,31,11.20
2013,04,27,08,32,11.20
2013,04,27,08,33,11.20
2013,04,27,08,34,11.20
2013,04,27,08,35,11.20
2013,04,27,08,36,11.20
2013,04,27,08,37,11.20
2013,04,27,08,38,11.20
2013,04,27,08,39,11.20
2013,04,27,08,40,11.20
2013,04,27,08,41,11.20
2013,04,27,08,42,11.20
2013,04,27,08,43,11.20
2013,04,27,08,44,11.20
2013,04,27,08,45,11.30
2013,04,27,08,46,11.30
2013,04,27,08,47,11.30
2013,04,27,08,48,11.30
2013,04,27,08,49,11.30
2013,04,27,08,50,11.30
2013,04,27,08,51,11.30
2013,04,27,08,52,11.30
2013,04,27,08,53,11.30
2013,04,27,08,54,11.30
2013,04,27,08,55,11.30
2013,04,27,08,56,11.30
2013,04,27,08,57,11.30
2013,04,27,08,58,11.30
2013,04,27,08,59,11.30
2013,04,27,09,00,11.30
2013,04,27,09,01,11.30
2013,04,27,09,02,11.30
2013,04,27,09,03,11.30
2013,04,27,09,04,11.30
2013,04,27,09,05,11.20
2013,04,27,09,06,11.30
2013,04,27,09,07,11.30
2013,04,27,09,08,11.30
2013,04,27,09,09,11.30
2013,04,27,09,10,11.30
2013,04,27,09,11,11.30
2013,04,27,09,12,11.30
2013,04,27,09,13,11.30
2013,04,27,09,14,11.30
2013,04,27,09,15,11.20
2013,04,27,09,16,11.20
2013,04,27,09,17,11.20
2013,04,27,09,18,11.20
2013,04,27,09,19,11.20
2013,04,27,09,20,11.30
2013,04,27,09,21,11.20
2013,04,27,09,22,11.20
2013,04,27,09,23,11.30
2013,04,27,09,24,11.20
2013,04,27,09,25,11.20
2013,04,27,09,26,11.20
2013,04,27,09,27,11.20
2013,04,27,09,28,11.20
2013,04,27,09,29,11.20
2013,04,27,09,30,11.20
2013,04,27,09,31,11.20
2013,04,27,09,32,11.20
2013,04,27,09,33,11.20
2013,04,27,09,34,11.20
2013,04,27,09,35,11.20
2013,04,27,09,36,11.30
2013,04,27,09,37,11.30
2013,04,27,09,38,11.30
2013,04,27,09,39,11.30
2013,04,27,09,40,11.30
2013,04,27,09,41,11.40
2013,04,27,09,42,11.40
2013,04,27,09,43,11.40
2013,04,27,09,44,11.40
2013,04,27,09,45,11.40
2013,04,27,09,46,11.50
2013,04,27,09,47,11.50
2013,04,27,09,48,11.60
2013,04,27,09,49,11.60
2013,04,27,09,50,11.60
2013,04,27,09,51,11.60
2013,04,27,09,52,11.70
2013,04,27,09,53,11.70
2013,04,27,09,54,11.70
2013,04,27,09,55,11.70
2013,04,27,09,56,11.80
2013,04,27,09,57,11.80
2013,04,27,09,58,11.80
2013,04,27,09,59,11.90
2013,04,27,10,00,11.90
2013,04,27,10,01,11.90
2013,04,27,10,02,11.90
2013,04,27,10,03,12.00
2013,04,27,10,04,12.00
2013,04,27,10,05,12.10
2013,04,27,10,06,12.00
2013,04,27,10,07,12.00
2013,04,27,10,08,12.00
2013,04,27,10,09,11.90
2013,04,27,10,10,11.80
2013,04,27,10,11,11.80
2013,04,27,10,12,11.80
2013,04,27,10,13,11.80
2013,04,27,10,14,11.80
2013,04,27,10,15,11.80
2013,04,27,10,16,11.80
2013,04,27,10,17,11.80
2013,04,27,10,18,11.80
2013,04,27,10,19,11.80
2013,04,27,10,20,11.80
2013,04,27,10,21,11.80
2013,04,27,10,22,11.80
2013,04,27,10,23,11.70
2013,04,27,10,24,11.70
2013,04,27,10,25,11.70
2013,04,27,10,26,11.70
2013,04,27,10,27,11.60
2013,04,27,10,28,11.60
2013,04,27,10,29,11.60
2013,04,27,10,30,11.60
2013,04,27,10,31,11.60
2013,04,27,10,32,11.50
2013,04,27,10,33,11.50
2013,04,27,10,34,11.50
2013,04,27,10,35,11.40
2013,04,27,10,36,11.40
2013,04,27,10,37,11.40
2013,04,27,10,38,11.40
2013,04,27,10,39,11.40
2013,04,27,10,40,11.40
2013,04,27,10,41,11.40
2013,04,27,10,42,11.30
2013,04,27,10,43,11.30
2013,04,27,10,44,11.30
2013,04,27,10,45,11.30
2013,04,27,10,46,11.20
2013,04,27,10,47,11.10
2013,04,27,10,48,11.00
2013,04,27,10,49,11.00
2013,04,27,10,50,10.90
2013,04,27,10,51,10.90
2013,04,27,10,52,10.90
2013,04,27,10,53,10.80
2013,04,27,10,54,10.80
2013,04,27,10,55,10.80
2013,04,27,10,56,10.80
2013,04,27,10,57,10.80
2013,04,27,10,58,10.70
2013,04,27,10,59,10.70
2013,04,27,11,00,10.70
2013,04,27,11,01,10.70
2013,04,27,11,02,10.60
2013,04,27,11,03,10.60
2013,04,27,11,04,10.60
2013,04,27,11,05,10.60
2013,04,27,11,06,10.60
2013,04,27,11,07,10.60
2013,04,27,11,08,10.50
2013,04,27,11,09,10.40
2013,04,27,11,10,10.40
2013,04,27,11,11,10.40
2013,04,27,11,12,10.40
2013,04,27,11,13,10.40
2013,04,27,11,14,10.40
2013,04,27,11,15,10.30
2013,04,27,11,16,10.30
2013,04,27,11,17,10.30
2013,04,27,11,18,10.30
2013,04,27,11,19,10.30
2013,04,27,11,20,10.30
2013,04,27,11,21,10.30
2013,04,27,11,22,10.30
2013,04,27,11,23,10.30
2013,04,27,11,24,10.30
2013,04,27,11,25,10.40
2013,04,27,11,26,10.50
2013,04,27,11,27,10.50
2013,04,27,11,28,10.60
2013,04,27,11,29,10.60
2013,04,27,11,30,10.60
2013,04,27,11,31,10.60
2013,04,27,11,32,10.60
2013,04,27,11,33,10.60
2013,04,27,11,34,10.60
2013,04,27,11,35,10.60
2013,04,27,11,36,10.60
2013,04,27,11,37,10.60
2013,04,27,11,38,10.60
2013,04,27,11,39,10.60
2013,04,27,11,40,10.60
2013,04,27,11,41,10.60
2013,04,27,11,42,10.60
2013,04,27,11,43,10.60
2013,04,27,11,44,10.60
2013,04,27,11,45,10.60
2013,04,27,11,46,10.60
2013,04,27,11,47,10.70
2013,04,27,11,48,10.60
2013,04,27,11,49,10.60
2013,04,27,11,50,10.60
2013,04,27,11,51,10.60
2013,04,27,11,52,10.60
2013,04,27,11,53,10.70
2013,04,27,11,54,10.70
2013,04,27,11,55,10.70
2013,04,27,11,56,10.70
2013,04,27,11,57,10.80
2013,04,27,11,58,10.90
2013,04,27,11,59,10.90
2013,04,27,12,00,11.00
2013,04,27,12,01,11.10
2013,04,27,12,02,11.10
2013,04,27,12,03,11.10
2013,04,27,12,04,11.10
2013,04,27,12,05,11.10
2013,04,27,12,06,11.10
2013,04,27,12,07,11.00
2013,04,27,12,08,11.00
2013,04,27,12,09,11.00
2013,04,27,12,10,11.00
2013,04,27,12,11,11.10
2013,04,27,12,12,11.10
2013,04,27,12,13,11.20
2013,04,27,12,14,11.20
2013,04,27,12,15,11.20
2013,04,27,12,16,11.20
2013,04,27,12,17,11.30
2013,04,27,12,18,11.20
2013,04,27,12,19,11.20
2013,04,27,12,20,11.20
2013,04,27,12,21,11.20
2013,04,27,12,22,11.20
2013,04,27,12,23,11.20
2013,04,27,12,24,11.20
2013,04,27,12,25,11.20
2013,04,27,12,26,11.20
2013,04,27,12,27,11.10
2013,04,27,12,28,11.10
2013,04,27,12,29,11.10
2013,04,27,12,30,11.00
2013,04,27,12,31,10.90
2013,04,27,12,32,10.90
2013,04,27,12,33,10.90
2013,04,27,12,34,10.90
2013,04,27,12,35,10.80
2013,04,27,12,36,10.80
2013,04,27,12,37,10.80
2013,04,27,12,38,10.80
2013,04,27,12,39,10.80
2013,04,27,12,40,10.70
2013,04,27,12,41,10.70
2013,04,27,12,42,10.60
2013,04,27,12,43,10.50
2013,04,27,12,44,10.50
2013,04,27,12,45,10.50
2013,04,27,12,46,10.50
2013,04,27,12,47,10.40
2013,04,27,12,48,10.40
2013,04,27,12,49,10.40
2013,04,27,12,50,10.40
2013,04,27,12,51,10.40
2013,04,27,12,52,10.40
2013,04,27,12,53,10.30
2013,04,27,12,54,10.30
2013,04,27,12,55,10.30
2013,04,27,12,56,10.30
2013,04,27,12,57,10.30
2013,04,27,12,58,10.20
2013,04,27,12,59,10.20
2013,04,27,13,00,10.20
2013,04,27,13,01,10.20
2013,04,27,13,02,10.20
2013,04,27,13,03,10.20
2013,04,27,13,04,10.20
2013,04,27,13,05,10.20
2013,04,27,13,06,10.20
2013,04,27,13,07,10.20
2013,04,27,13,08,10.10
2013,04,27,13,09,10.10
2013,04,27,13,10,10.00
2013,04,27,13,11,9.90
2013,04,27,13,12,9.90
2013,04,27,13,13,9.90
2013,04,27,13,14,9.90
2013,04,27,13,15,9.90
2013,04,27,13,16,9.80
2013,04,27,13,17,9.90
2013,04,27,13,18,9.90
2013,04,27,13,19,9.90
2013,04,27,13,20,9.90
2013,04,27,13,21,9.90
2013,04,27,13,22,9.90
2013,04,27,13,23,9.90
2013,04,27,13,24,9.80
2013,04,27,13,25,9.80
2013,04,27,13,26,9.80
2013,04,27,13,27,9.80
2013,04,27,13,28,9.80
2013,04,27,13,29,9.80
2013,04,27,13,30,9.80
2013,04,27,13,31,9.80
2013,04,27,13,32,9.80
2013,04,27,13,33,9.80
2013,04,27,13,34,9.80
2013,04,27,13,35,9.80
2013,04,27,13,36,9.80
2013,04,27,13,37,9.80
2013,04,27,13,38,9.80
2013,04,27,13,39,9.90
2013,04,27,13,40,10.00
2013,04,27,13,41,10.00
2013,04,27,13,42,10.10
2013,04,27,13,43,10.10
2013,04,27,13,44,10.10
2013,04,27,13,45,10.10
2013,04,27,13,46,10.10
2013,04,27,13,47,10.10
2013,04,27,13,48,10.10
2013,04,27,13,49,10.10
2013,04,27,13,50,10.00
2013,04,27,13,51,10.00
2013,04,27,13,52,10.00
2013,04,27,13,53,10.00
2013,04,27,13,54,10.00
2013,04,27,13,55,10.00
2013,04,27,13,56,10.00
2013,04,27,13,57,10.00
2013,04,27,13,58,10.00
2013,04,27,13,59,10.00
2013,04,27,14,00,10.00
2013,04,27,14,01,10.10
2013,04,27,14,02,10.10
2013,04,27,14,03,10.10
2013,04,27,14,04,10.10
2013,04,27,14,05,10.10
2013,04,27,14,06,10.10
2013,04,27,14,07,10.10
2013,04,27,14,08,10.20
2013,04,27,14,09,10.20
2013,04,27,14,10,10.20
2013,04,27,14,11,10.20
2013,04,27,14,12,10.20
2013,04,27,14,13,10.20
2013,04,27,14,14,10.20
2013,04,27,14,15,10.20
2013,04,27,14,16,10.30
2013,04,27,14,17,10.30
2013,04,27,14,18,10.30
2013,04,27,14,19,10.40
2013,04,27,14,20,10.40
2013,04,27,14,21,10.40
2013,04,27,14,22,10.40
2013,04,27,14,23,10.40
2013,04,27,14,24,10.40
2013,04,27,14,25,10.50
2013,04,27,14,26,10.50
2013,04,27,14,27,10.50
2013,04,27,14,28,10.50
2013,04,27,14,29,10.50
2013,04,27,14,30,10.50
2013,04,27,14,31,10.50
2013,04,27,14,32,10.40
2013,04,27,14,33,10.40
2013,04,27,14,34,10.40
2013,04,27,14,35,10.40
2013,04,27,14,36,10.40
2013,04,27,14,37,10.50
2013,04,27,14,38,10.50
2013,04,27,14,39,10.50
2013,04,27,14,40,10.50
2013,04,27,14,41,10.50
2013,04,27,14,42,10.40
2013,04,27,14,43,10.40
2013,04,27,14,44,10.30
2013,04,27,14,45,10.30
2013,04,27,14,46,10.30
2013,04,27,14,47,10.30
2013,04,27,14,48,10.30
2013,04,27,14,49,10.30
2013,04,27,14,50,10.30
2013,04,27,14,51,10.30
2013,04,27,14,52,10.30
2013,04,27,14,53,10.30
2013,04,27,14,54,10.30
2013,04,27,14,55,10.30
2013,04,27,14,56,10.30
2013,04,27,14,57,10.30
2013,04,27,14,58,10.30
2013,04,27,14,59,10.30
2013,04,27,15,00,10.40
2013,04,27,15,01,10.40
2013,04,27,15,02,10.40
2013,04,27,15,03,10.50
2013,04,27,15,04,10.50
2013,04,27,15,05,10.50
2013,04,27,15,06,10.60
2013,04,27,15,07,10.60
2013,04,27,15,08,10.60
2013,04,27,15,09,10.60
2013,04,27,15,10,10.60
2013,04,27,15,11,10.60
2013,04,27,15,12,10.70
2013,04,27,15,13,10.70
2013,04,27,15,14,10.80
2013,04,27,15,15,10.90
2013,04,27,15,16,10.90
2013,04,27,15,17,11.00
2013,04,27,15,18,11.00
2013,04,27,15,19,11.00
2013,04,27,15,20,11.10
2013,04,27,15,21,11.10
2013,04,27,15,22,11.10
2013,04,27,15,23,11.10
2013,04,27,15,24,11.10
2013,04,27,15,25,11.10
2013,04,27,15,26,11.10
2013,04,27,15,27,11.20
2013,04,27,15,28,11.20
2013,04,27,15,29,11.30
2013,04,27,15,30,11.20
2013,04,27,15,31,11.20
2013,04,27,15,32,11.20
2013,04,27,15,33,11.10
2013,04,27,15,34,11.10
2013,04,27,15,35,11.10
2013,04,27,15,36,11.10
2013,04,27,15,37,11.10
2013,04,27,15,38,11.20
2013,04,27,15,39,11.20
2013,04,27,15,40,11.20
2013,04,27,15,41,11.20
2013,04,27,15,42,11.20
2013,04,27,15,43,11.20
2013,04,27,15,44,11.20
2013,04,27,15,45,11.20
2013,04,27,15,46,11.10
2013,04,27,15,47,11.10
2013,04,27,15,48,11.10
2013,04,27,15,49,11.00
2013,04,27,15,50,11.00
2013,04,27,15,51,10.90
2013,04,27,15,52,10.90
2013,04,27,15,53,10.90
2013,04,27,15,54,10.80
2013,04,27,15,55,10.80
2013,04,27,15,56,10.80
2013,04,27,15,57,10.90
2013,04,27,15,58,10.90
2013,04,27,15,59,10.90
2013,04,27,16,00,10.90
2013,04,27,16,01,10.90
2013,04,27,16,02,10.90
2013,04,27,16,03,10.90
2013,04,27,16,04,11.00
2013,04,27,16,05,11.00
2013,04,27,16,06,10.90
2013,04,27,16,07,10.90
2013,04,27,16,08,10.90
2013,04,27,16,09,10.90
2013,04,27,16,10,10.90
2013,04,27,16,11,10.90
2013,04,27,16,12,11.00
2013,04,27,16,13,11.00
2013,04,27,16,14,11.00
2013,04,27,16,15,11.10
2013,04,27,16,16,11.10
2013,04,27,16,17,11.10
2013,04,27,16,18,11.10
2013,04,27,16,19,11.10
2013,04,27,16,20,11.10
2013,04,27,16,21,11.00
2013,04,27,16,22,11.00
2013,04,27,16,23,11.00
2013,04,27,16,24,10.90
2013,04,27,16,25,10.90
2013,04,27,16,26,10.90
2013,04,27,16,27,10.90
2013,04,27,16,28,10.90
2013,04,27,16,29,10.80
2013,04,27,16,30,10.80
2013,04,27,16,31,10.80
2013,04,27,16,32,10.80
2013,04,27,16,33,10.80
2013,04,27,16,34,10.80
2013,04,27,16,35,10.80
2013,04,27,16,36,10.80
2013,04,27,16,37,10.80
2013,04,27,16,38,10.90
2013,04,27,16,39,10.90
2013,04,27,16,40,10.90
2013,04,27,16,41,10.80
2013,04,27,16,42,10.80
2013,04,27,16,43,10.80
2013,04,27,16,44,10.80
2013,04,27,16,45,10.70
2013,04,27,16,46,10.70
2013,04,27,16,47,10.70
2013,04,27,16,48,10.70
2013,04,27,16,49,10.70
2013,04,27,16,50,10.70
2013,04,27,16,51,10.70
2013,04,27,16,52,10.60
2013,04,27,16,53,10.60
2013,04,27,16,54,10.60
2013,04,27,16,55,10.60
2013,04,27,16,56,10.60
2013,04,27,16,57,10.60
2013,04,27,16,58,10.60
2013,04,27,16,59,10.60
2013,04,27,17,00,10.60
2013,04,27,17,01,10.50
2013,04,27,17,02,10.50
2013,04,27,17,03,10.50
2013,04,27,17,04,10.40
2013,04,27,17,05,10.40
2013,04,27,17,06,10.40
2013,04,27,17,07,10.40
2013,04,27,17,08,10.40
2013,04,27,17,09,10.40
2013,04,27,17,10,10.40
2013,04,27,17,11,10.40
2013,04,27,17,12,10.40
2013,04,27,17,13,10.40
2013,04,27,17,14,10.50
2013,04,27,17,15,10.50
2013,04,27,17,16,10.50
2013,04,27,17,17,10.50
2013,04,27,17,18,10.50
2013,04,27,17,19,10.50
2013,04,27,17,20,10.50
2013,04,27,17,21,10.50
2013,04,27,17,22,10.50
2013,04,27,17,23,10.50
2013,04,27,17,24,10.50
2013,04,27,17,25,10.50